COSMOS 2251 DEB

Satellite information

Favourite Embed

Satellite Type and Status

DEBRISIN ORBIT

Key statistics

Satellite COSMOS 2251 DEB at a glance.

Uptime

11821

Days in orbit

Revolutions

≈ 15.3

Per day

Orbit

LEO

Low Earth Orbit

Inclination

74.0

Latest

Satellite identification and parameters

Extended collection of information and parameters for COSMOS 2251 DEB.

Object identification

Identified? True

Debris? True

Object name: COSMOS 2251 DEB

International designator: 1993-036BFF

Object number (NORAD): 37085

Object ID (CCSDS): 37085

Country: COMMONWEALTH OF INDEPENDENT STATES (CIS)

Current information (Y/N): Y

RCS size: SMALL

Orbital parameters

Period: 93.999 minutes

Inclination: 73.9522 deg

SMA: 6848.192 km

Apoapsis: 485.862 km

Periapsis: 454.251 km

RAAN: 319.6123 deg

Eccentricy: 0.00230793

Argument of periapsis: 161.6124 deg

Mean anomaly: 198.5919 deg

Mean motion: 15.31929944 rev/day

Mean motion (dot): 0.00062449 rev/day2

B* drag term: 0.0019933212 1/REarth

Two-line elements (TLE)

Creation date: Oct. 26, 2025, 2:54 a.m.

Reference frame: TEME

Reference center: EARTH

Epoch: Oct. 25, 2025, 7:09 p.m. UTC

TLE line 0: 0 COSMOS 2251 DEB

TLE line 1: 1 37085U 93036BFF 25298.79827205 .00062449 00000-0 19933-2 0 9992

TLE line 2: 2 37085 73.9522 319.6123 0023079 161.6124 198.5919 15.31929944664016

Live tracking on map

Real-time ground track for satellite COSMOS 2251 DEB.

In-orbit conjunctions

A list of the most updated potential collisions computed for object COSMOS 2251 DEB.

Target Orbit TCA Probability of collision Miss distance Type
DUMMY MASS 1 LEO 2024-09-26 13:50:16 0.0002542778 206.0 (m) PAYLOAD

Associated space launch

Military communications satellite. Destroyed in a collision with Iridium 33.

COSMOS 2251 DEB was lifted into orbit during the mission ‘Kosmos-3M | Strela-2M 51’, on board a Kosmos-3M space rocket.

The launch took place on June 16, 1993, 4:17 a.m. from 132/1 (132L).

For more information about the launch, click the button.

Launch to space Kosmos-3M | Strela-2M 51
Kosmos-3M | Strela-2M 51

Agency: N/A

Status: Launch Successful

Launch date: June 16, 1993, 4:17 a.m. UTC

Rocket: Kosmos-3M

Launch pad: 132/1 (132L)

Location: Plesetsk Cosmodrome, Russian Federation

...

Latest news about this satellite

There are no fresh news available about this satellite. Check back as we update our databases every day.


Newsletter sign-up

Weekly statistics, charts and insights to help you stay on top of the space industry.